"Period start","avg(HW err(1)/warn(2) (#))","avg(Visibility (m))","avg(Weather code (#))","avg(Precip intensity (mm/h))","min(HW err(1)/warn(2) (#))","max(HW err(1)/warn(2) (#))","std(HW err(1)/warn(2) (#))","med(HW err(1)/warn(2) (#))","min(Visibility (m))","max(Visibility (m))","std(Visibility (m))","med(Visibility (m))","min(Weather code (#))","max(Weather code (#))","std(Weather code (#))","med(Weather code (#))","min(Precip intensity (mm/h))","max(Precip intensity (mm/h))","std(Precip intensity (mm/h))","med(Precip intensity (mm/h))"
2014-05-07 00:00:00,2,22037,28,0.00,2,2,0,2,11299,30320,4669,22286,0,71,35,0,0.00,0.00,0.00,0.00
2014-05-07 00:10:00,2,23188,0,0.00,2,2,0,2,11741,39541,7627,23461,0,0,0,0,0.00,0.00,0.00,0.00
2014-05-07 00:20:00,2,21227,0,0.00,2,2,0,2,11922,35789,6063,20556,0,0,0,0,0.00,0.00,0.00,0.00
2014-05-07 00:30:00,2,27928,0,0.00,2,2,0,2,17777,42205,6250,27873,0,0,0,0,0.00,0.00,0.00,0.00
2014-05-07 00:40:00,2,18036,0,0.00,2,2,0,2,12045,24737,4289,18368,0,0,0,0,0.00,0.00,0.00,0.00
2014-05-07 00:50:00,2,16653,0,0.00,2,2,0,2,12112,22537,2838,16785,0,0,0,0,0.00,0.00,0.00,0.00
2014-05-07 01:00:00,2,20290,0,0.00,2,2,0,2,16001,27622,3483,20154,0,0,0,0,0.00,0.00,0.00,0.00
2014-05-07 01:10:00,2,17682,0,0.00,2,2,0,2,12921,23837,3655,16738,0,0,0,0,0.00,0.00,0.00,0.00
2014-05-07 01:20:00,2,12881,0,0.00,2,2,0,2,5684,28476,6824,11774,0,0,0,0,0.00,0.00,0.00,0.00
2014-05-07 01:30:00,2,4802,71,0.40,2,2,0,2,2660,8142,1408,4570,71,71,0,71,0.05,1.45,0.44,0.25
2014-05-07 01:40:00,2,14028,67,0.03,2,2,0,2,8875,24883,5413,12050,41,77,13,71,0.00,0.15,0.05,0.00
2014-05-07 01:50:00,2,11409,72,0.73,2,2,0,2,2252,36820,10127,8094,71,77,2,71,0.00,3.75,1.12,0.25
2014-05-07 02:00:00,2,2888,71,2.89,2,2,0,2,1314,5699,1302,2609,71,71,0,71,0.55,6.25,2.03,2.52
2014-05-07 02:10:00,2,2341,71,3.88,2,2,0,2,228,4740,1313,2503,71,71,0,71,0.25,9.70,2.98,3.33
2014-05-07 02:20:00,2,1399,71,5.69,2,2,0,2,1051,1910,283,1302,71,71,0,71,2.70,9.05,2.07,5.28
2014-05-07 02:30:00,2,2209,71,2.36,2,2,0,2,1463,3194,478,2172,71,71,0,71,0.90,6.30,1.59,2.20
2014-05-07 02:40:00,2,2242,71,2.06,2,2,0,2,1846,2823,312,2114,71,71,0,71,0.70,3.05,0.70,2.05
2014-05-07 02:50:00,2,3291,71,0.89,2,2,0,2,2448,4087,503,3456,71,71,0,71,0.30,1.80,0.55,0.65
2014-05-07 03:00:00,2,3237,71,1.30,2,2,0,2,2175,7165,1375,2870,71,71,0,71,0.05,3.05,1.05,1.05
2014-05-07 03:10:00,2,3894,71,0.33,2,2,0,2,2808,7061,1217,3519,71,71,0,71,0.00,0.80,0.24,0.30
2014-05-07 03:20:00,2,2334,71,1.53,2,2,0,2,1734,3061,407,2170,71,71,0,71,0.80,2.30,0.48,1.43
2014-05-07 03:30:00,2,2401,71,1.69,2,2,0,2,1774,3274,485,2416,71,71,0,71,0.20,4.10,1.32,1.75
2014-05-07 03:40:00,2,2603,71,0.93,2,2,0,2,1709,3806,634,2458,71,71,0,71,0.10,2.30,0.75,0.75
2014-05-07 03:50:00,2,1645,71,3.63,2,2,0,2,1306,2354,326,1512,71,71,0,71,1.00,6.75,1.56,3.45
2014-05-07 04:00:00,2,2079,71,1.29,2,2,0,2,1585,2818,337,2070,71,71,0,71,0.20,2.80,0.79,0.95
2014-05-07 04:10:00,2,2531,71,0.91,2,2,0,2,2000,3569,482,2353,71,71,0,71,0.15,2.25,0.79,0.52
2014-05-07 04:20:00,2,2203,71,0.81,2,2,0,2,1779,2660,325,2272,71,71,0,71,0.05,2.20,0.60,0.57
2014-05-07 04:30:00,2,2505,71,0.60,2,2,0,2,1919,3466,413,2446,71,71,0,71,0.05,1.35,0.42,0.50
2014-05-07 04:40:00,2,2339,71,0.94,2,2,0,2,1520,3234,549,2226,71,71,0,71,0.05,2.40,0.71,0.95
2014-05-07 04:50:00,2,1912,71,1.14,2,2,0,2,1620,2264,233,1847,71,71,0,71,0.35,2.55,0.69,0.93
2014-05-07 05:00:00,2,1616,71,2.92,2,2,0,2,1430,1851,149,1600,71,71,0,71,1.75,5.05,0.94,2.70
2014-05-07 05:10:00,2,1666,71,3.22,2,2,0,2,1038,2026,303,1650,71,71,0,71,0.70,9.65,2.61,2.42
2014-05-07 05:20:00,2,1596,71,3.60,2,2,0,2,1176,2357,366,1534,71,71,0,71,0.45,6.75,1.87,3.85
2014-05-07 05:30:00,2,1804,71,2.88,2,2,0,2,1227,3268,619,1678,71,71,0,71,0.25,5.90,1.84,3.15
2014-05-07 05:40:00,2,2059,71,1.23,2,2,0,2,1552,3342,560,1815,71,71,0,71,0.10,3.20,0.93,0.98
2014-05-07 05:50:00,2,1688,71,2.64,2,2,0,2,1305,2096,214,1646,71,71,0,71,0.70,4.50,1.15,2.45
2014-05-07 06:00:00,2,1914,71,2.31,2,2,0,2,1281,3127,604,1686,71,71,0,71,0.40,4.55,1.46,2.10
2014-05-07 06:10:00,2,1903,71,2.52,2,2,0,2,1345,2914,478,1737,71,71,0,71,0.20,4.95,1.64,2.78
2014-05-07 06:20:00,2,1699,71,3.69,2,2,0,2,1074,2253,429,1690,71,71,0,71,1.10,8.75,2.52,3.05
2014-05-07 06:30:00,2,1898,71,3.49,2,2,0,2,1121,2618,395,1870,71,71,0,71,2.00,6.80,1.47,3.20
2014-05-07 06:40:00,2,1487,71,4.10,2,2,0,2,1250,1751,176,1460,71,71,0,71,2.05,5.90,1.08,4.35
2014-05-07 06:50:00,2,1352,71,4.88,2,2,0,2,1055,1602,155,1374,71,71,0,71,3.45,9.60,1.78,4.28
2014-05-07 07:00:00,2,1667,71,3.38,2,2,0,2,1314,2467,373,1500,71,71,0,71,1.05,5.55,1.29,3.47
2014-05-07 07:10:00,2,3352,71,0.85,2,2,0,2,2366,5061,804,3183,71,71,0,71,0.10,1.65,0.59,0.88
2014-05-07 07:20:00,2,2024,71,3.44,2,2,0,2,1157,3768,829,1738,71,71,0,71,0.75,6.95,2.09,2.95
2014-05-07 07:30:00,2,2991,71,1.27,2,2,0,2,1420,4014,747,3166,71,71,0,71,0.30,3.35,1.03,0.78
2014-05-07 07:40:00,2,2733,71,1.98,2,2,0,2,1320,4174,1152,2766,71,71,0,71,0.30,4.65,1.46,1.55
2014-05-07 07:50:00,2,2884,71,1.40,2,2,0,2,1592,7258,1660,2160,71,71,0,71,0.05,2.85,0.88,1.32
2014-05-07 08:00:00,2,5912,71,0.20,2,2,0,2,3704,9341,1749,5650,71,71,0,71,0.05,0.60,0.16,0.12
2014-05-07 08:10:00,2,3599,71,0.48,2,2,0,2,2461,7213,1432,3045,71,71,0,71,0.05,1.25,0.34,0.35
2014-05-07 08:20:00,2,3502,71,0.36,2,2,0,2,2396,6057,1023,3114,71,71,0,71,0.10,0.75,0.20,0.30
2014-05-07 08:30:00,2,8105,34,0.14,2,2,0,2,3302,13680,3033,7898,10,71,30,10,0.00,0.70,0.24,0.00
2014-05-07 08:40:00,2,8158,76,0.11,2,2,0,2,3194,19064,4759,7526,71,77,2,77,0.00,0.30,0.10,0.10
2014-05-07 08:50:00,2,12408,77,0.05,2,2,0,2,6985,20336,4038,12668,77,77,0,77,0.00,0.15,0.04,0.05
2014-05-07 09:00:00,2,12637,77,0.06,2,2,0,2,7084,23657,4701,12474,77,77,0,77,0.00,0.10,0.03,0.05
2014-05-07 09:10:00,2,25004,15,0.00,2,2,0,2,18034,33159,5139,23574,0,77,31,0,0.00,0.00,0.00,0.00
2014-05-07 09:20:00,2,18732,7,0.00,2,2,0,2,11501,28330,5249,18934,0,71,21,0,0.00,0.00,0.00,0.00
2014-05-07 09:30:00,2,18946,74,0.00,2,2,0,2,12626,29202,4734,17404,71,77,3,74,0.00,0.00,0.00,0.00
2014-05-07 09:40:00,2,22560,0,0.00,2,2,0,2,14730,33960,6340,20318,0,0,0,0,0.00,0.00,0.00,0.00
2014-05-07 09:50:00,2,21557,43,0.01,2,2,0,2,14972,34066,5306,20384,0,71,35,71,0.00,0.15,0.05,0.00
2014-05-07 10:00:00,2,33876,0,0.00,2,2,0,2,28242,45317,5238,32746,0,0,0,0,0.00,0.00,0.00,0.00
2014-05-07 10:10:00,2,29097,37,0.00,2,2,0,2,19317,36801,5477,31096,0,77,37,36,0.00,0.00,0.00,0.00
2014-05-07 10:20:00,2,44304,8,0.00,2,2,0,2,38675,50000,3460,43928,0,77,23,0,0.00,0.00,0.00,0.00
2014-05-07 10:30:00,2,44044,0,0.00,2,2,0,2,34667,50000,5601,46063,0,0,0,0,0.00,0.00,0.00,0.00
2014-05-07 10:40:00,2,37115,0,0.00,2,2,0,2,30412,45828,4988,36768,0,0,0,0,0.00,0.00,0.00,0.00
2014-05-07 10:50:00,2,44645,0,0.00,2,2,0,2,33332,50000,5784,46820,0,0,0,0,0.00,0.00,0.00,0.00
2014-05-07 11:00:00,2,46294,0,0.00,2,2,0,2,38713,50000,3833,47684,0,0,0,0,0.00,0.00,0.00,0.00
2014-05-07 11:10:00,2,43367,0,0.00,2,2,0,2,36978,49721,3642,42998,0,0,0,0,0.00,0.00,0.00,0.00
2014-05-07 11:20:00,2,45250,0,0.00,2,2,0,2,38782,50000,3711,45908,0,0,0,0,0.00,0.00,0.00,0.00
2014-05-07 11:30:00,2,45247,0,0.00,2,2,0,2,40513,49560,2973,44910,0,0,0,0,0.00,0.00,0.00,0.00
2014-05-07 11:40:00,2,45224,0,0.00,2,2,0,2,39030,50000,3319,44582,0,0,0,0,0.00,0.00,0.00,0.00
2014-05-07 11:50:00,2,41517,0,0.00,2,2,0,2,36763,47106,3273,41080,0,0,0,0,0.00,0.00,0.00,0.00
2014-05-07 12:00:00,2,43330,0,0.00,2,2,0,2,37227,48889,3285,42828,0,0,0,0,0.00,0.00,0.00,0.00
2014-05-07 12:10:00,2,46683,0,0.00,2,2,0,2,42563,50000,2641,46870,0,0,0,0,0.00,0.00,0.00,0.00
2014-05-07 12:20:00,2,42039,0,0.00,2,2,0,2,36281,49806,4582,41830,0,0,0,0,0.00,0.00,0.00,0.00
2014-05-07 12:30:00,2,17451,57,0.38,2,2,0,2,6123,40829,10132,14205,0,71,28,71,0.00,1.00,0.38,0.25
2014-05-07 12:40:00,2,20779,71,0.20,2,2,0,2,10161,38093,10742,16673,71,71,0,71,0.00,0.75,0.26,0.05
2014-05-07 12:50:00,2,43235,21,0.01,2,2,0,2,34786,49176,5077,45532,0,71,33,0,0.00,0.05,0.02,0.00
2014-05-07 13:00:00,2,16817,52,0.17,2,2,0,2,5555,40279,12965,11514,0,77,34,71,0.00,0.90,0.28,0.05
2014-05-07 13:10:00,2,3347,71,2.42,2,2,0,2,1718,6547,1297,3028,71,71,0,71,0.25,4.30,1.00,2.30
2014-05-07 13:20:00,2,1876,71,5.21,2,2,0,2,1233,3176,517,1818,71,71,0,71,3.35,7.70,1.15,5.30
2014-05-07 13:30:00,2,1446,71,5.90,2,2,0,2,1050,2018,270,1453,71,71,0,71,4.10,7.80,1.54,5.85
2014-05-07 13:40:00,2,1498,71,4.45,2,2,0,2,913,2654,554,1313,71,72,0,71,1.35,6.50,1.70,5.08
2014-05-07 13:50:00,2,3250,71,0.86,2,2,0,2,2402,3861,466,3464,71,71,0,71,0.40,1.60,0.38,0.75
2014-05-07 14:00:00,2,5382,71,0.48,2,2,0,2,3292,7662,1391,5699,71,71,0,71,0.10,1.10,0.31,0.38
2014-05-07 14:10:00,2,4294,71,0.91,2,2,0,2,1415,6430,1824,5014,71,71,0,71,0.20,2.15,0.65,0.60
2014-05-07 14:20:00,2,2627,71,2.67,2,2,0,2,1267,4703,1224,2266,71,71,0,71,0.45,4.70,1.29,2.88
2014-05-07 14:30:00,2,4990,71,0.54,2,2,0,2,3334,6058,879,5064,71,71,0,71,0.25,0.90,0.26,0.47
2014-05-07 14:40:00,2,6265,71,0.36,2,2,0,2,2738,11064,2264,5672,71,71,0,71,0.00,1.30,0.39,0.20
2014-05-07 14:50:00,2,7535,71,0.10,2,2,0,2,5190,9116,1151,7289,71,71,0,71,0.00,0.25,0.07,0.08
2014-05-07 15:00:00,2,4704,71,0.32,2,2,0,2,3432,6639,964,4636,71,71,0,71,0.10,0.60,0.15,0.28
2014-05-07 15:10:00,2,2840,71,1.98,2,2,0,2,920,4836,1526,3318,71,71,0,71,0.35,5.75,1.68,1.40
2014-05-07 15:20:00,2,1210,71,5.05,2,2,0,2,805,1587,241,1204,71,71,0,71,2.00,7.80,1.51,5.00
2014-05-07 15:30:00,2,1200,71,2.26,2,2,0,2,852,1586,214,1247,71,71,0,71,1.60,3.05,0.50,2.17
2014-05-07 15:40:00,2,649,72,4.01,2,2,0,2,407,884,140,625,71,72,0,72,2.75,5.90,0.92,4.08
2014-05-07 15:50:00,2,692,72,5.00,2,2,0,2,363,1042,248,741,71,73,1,72,2.80,7.90,1.75,4.90
2014-05-07 16:00:00,2,1140,71,4.06,2,2,0,2,790,1954,366,1037,71,71,0,71,1.30,7.85,2.12,3.67
2014-05-07 16:10:00,2,1344,71,1.33,2,2,0,2,939,1654,272,1406,71,71,0,71,0.50,3.00,0.73,1.23
2014-05-07 16:20:00,2,741,72,2.77,2,2,0,2,467,1030,173,692,71,74,1,71,0.60,5.00,1.36,2.75
2014-05-07 16:30:00,2,986,72,1.61,2,2,0,2,630,1299,203,1028,71,74,1,71,0.55,4.15,0.97,1.25
2014-05-07 16:40:00,2,734,73,3.01,2,2,0,2,357,1356,378,543,71,77,3,72,0.55,5.60,1.77,2.47
2014-05-07 16:50:00,2,788,72,3.09,2,2,0,2,390,1521,321,701,71,72,0,72,1.30,5.55,1.26,2.72
2014-05-07 17:00:00,2,1066,76,2.44,2,2,0,2,810,1414,215,1001,71,77,2,77,1.15,4.05,0.84,2.62
2014-05-07 17:10:00,2,456,74,3.85,2,2,0,2,352,663,87,428,72,77,2,72,2.60,5.30,0.96,3.70
2014-05-07 17:20:00,2,322,73,9.70,2,2,0,2,122,564,142,286,72,73,0,73,1.45,25.35,6.67,7.88
2014-05-07 17:30:00,2,228,73,11.65,2,2,0,2,167,328,50,226,73,73,0,73,4.95,20.25,4.89,11.00
2014-05-07 17:40:00,2,477,73,6.03,2,2,0,2,203,1048,278,368,72,73,0,73,1.90,14.10,3.87,5.28
2014-05-07 17:50:00,2,1183,72,2.51,2,2,0,2,737,1922,352,1187,71,74,2,72,0.65,3.70,0.97,2.45
2014-05-07 18:00:00,2,5146,69,0.21,2,2,0,2,1127,10229,2360,4890,54,77,8,71,0.00,1.35,0.39,0.08
2014-05-07 18:10:00,2,14134,28,0.00,2,2,0,2,6991,24044,5518,14614,10,54,22,10,0.00,0.00,0.00,0.00
2014-05-07 18:20:00,2,30961,1,0.00,2,2,0,2,13790,47391,11290,32708,0,10,3,0,0.00,0.00,0.00,0.00
2014-05-07 18:30:00,2,20336,0,0.00,2,2,0,2,9447,40018,8871,18624,0,0,0,0,0.00,0.00,0.00,0.00
2014-05-07 18:40:00,2,40440,0,0.00,2,2,0,2,23090,48608,8755,44939,0,0,0,0,0.00,0.00,0.00,0.00
2014-05-07 18:50:00,2,15384,0,0.00,2,2,0,2,5487,50000,12439,10589,0,0,0,0,0.00,0.00,0.00,0.00
2014-05-07 19:00:00,2,7181,22,0.01,2,2,0,2,2405,9621,2226,7936,0,71,27,10,0.00,0.05,0.02,0.00
2014-05-07 19:10:00,2,6656,44,0.00,2,2,0,2,2973,11765,2655,5701,10,77,29,56,0.00,0.00,0.00,0.00
2014-05-07 19:20:00,2,5064,77,0.04,2,2,0,2,3891,7063,1051,4700,77,77,0,77,0.00,0.10,0.03,0.05
2014-05-07 19:30:00,2,2598,22,0.02,2,2,0,2,1779,3431,567,2506,10,71,24,10,0.00,0.10,0.03,0.00
2014-05-07 19:40:00,2,935,76,0.71,2,2,0,2,471,2213,500,822,71,77,2,77,0.05,2.00,0.68,0.45
2014-05-07 19:50:00,2,569,71,2.00,2,2,0,2,324,788,140,602,71,72,0,71,0.70,4.30,1.08,2.00
2014-05-07 20:00:00,2,743,71,2.29,2,2,0,2,446,955,162,777,71,72,0,71,0.85,5.80,1.53,1.82
2014-05-07 20:10:00,2,513,71,2.77,2,2,0,2,257,796,164,496,71,72,0,71,1.30,5.50,1.16,2.47
2014-05-07 20:20:00,2,421,72,3.82,2,2,0,2,339,508,51,430,72,72,0,72,1.00,7.90,1.93,3.83
2014-05-07 20:30:00,2,644,72,2.27,2,2,0,2,422,817,128,594,71,72,0,72,1.05,4.40,0.90,2.08
2014-05-07 20:40:00,2,1073,72,1.46,2,2,0,2,736,1503,265,1074,71,74,1,71,0.30,2.80,0.71,1.45
2014-05-07 20:50:00,2,767,65,2.32,2,2,0,2,590,941,100,764,41,71,12,71,1.35,3.70,0.66,2.28
2014-05-07 21:00:00,2,1523,65,0.61,2,2,0,2,922,2727,568,1401,34,77,16,71,0.00,2.20,0.63,0.43
2014-05-07 21:10:00,2,1806,74,0.17,2,2,0,2,1088,2464,385,1705,54,77,7,77,0.00,1.10,0.31,0.08
2014-05-07 21:20:00,2,3286,47,0.01,2,2,0,2,2139,4241,633,3423,20,77,27,46,0.00,0.05,0.02,0.00
2014-05-07 21:30:00,2,7436,31,0.00,2,2,0,2,5533,10430,1507,7110,20,77,23,20,0.00,0.00,0.00,0.00
2014-05-07 21:40:00,2,6801,20,0.00,2,2,0,2,3499,9991,1765,7013,20,20,0,20,0.00,0.00,0.00,0.00
2014-05-07 21:50:00,2,4664,20,0.00,2,2,0,2,2214,6847,1191,4654,20,20,0,20,0.00,0.00,0.00,0.00
2014-05-07 22:00:00,2,6667,18,0.00,2,2,0,2,3317,13755,3321,5003,10,20,4,20,0.00,0.00,0.00,0.00
2014-05-07 22:10:00,2,13983,9,0.00,2,2,0,2,9350,21984,3996,13404,0,10,3,10,0.00,0.00,0.00,0.00
2014-05-07 22:20:00,2,15942,0,0.00,2,2,0,2,6225,46343,11065,13467,0,0,0,0,0.00,0.00,0.00,0.00
2014-05-07 22:30:00,2,12100,0,0.00,2,2,0,2,5251,20554,4849,11651,0,0,0,0,0.00,0.00,0.00,0.00
2014-05-07 22:40:00,2,14561,0,0.00,2,2,0,2,7793,25080,5476,13335,0,0,0,0,0.00,0.00,0.00,0.00
2014-05-07 22:50:00,2,27657,0,0.00,2,2,0,2,15886,46173,10449,23452,0,0,0,0,0.00,0.00,0.00,0.00
2014-05-07 23:00:00,2,38963,0,0.00,2,2,0,2,29576,50000,6389,39414,0,0,0,0,0.00,0.00,0.00,0.00
2014-05-07 23:10:00,2,23302,0,0.00,2,2,0,2,7363,36503,9110,23688,0,0,0,0,0.00,0.00,0.00,0.00
2014-05-07 23:20:00,2,12755,0,0.00,2,2,0,2,6276,25444,5481,11034,0,0,0,0,0.00,0.00,0.00,0.00
2014-05-07 23:30:00,2,6222,60,0.06,2,2,0,2,4205,7889,1126,6485,0,77,30,77,0.00,0.35,0.10,0.00
2014-05-07 23:40:00,2,3339,71,0.57,2,2,0,2,2034,4607,799,3574,71,71,0,71,0.20,1.15,0.39,0.33
2014-05-07 23:50:00,2,2976,71,0.12,2,2,0,2,2204,4284,612,2737,71,71,0,71,0.00,0.60,0.17,0.08
